This is the latest recevied weather packets stored in our database for station/object SQ7IQO. If no packets are shown the sender has not sent any weather packets the latest 10 day(s).
| Time | Temp. | Humidity | Pressure | Rain* | Wind** | Luminosity | Snow |
|---|---|---|---|---|---|---|---|
| 1787399391 | 18.89° C | - | - | 0 mm | 1.79 m/s, ° | - | - |
| 1787399331 | 18.89° C | - | - | 0 mm | 2.24 m/s, ° | - | - |
| 1787399271 | 18.89° C | - | - | 0 mm | 2.24 m/s, ° | - | - |
| 1787399211 | 18.89° C | - | - | 0 mm | 1.79 m/s, ° | - | - |
| 1787399151 | 18.89° C | - | - | 0 mm | 2.24 m/s, ° | - | - |
| 1787399091 | 19.44° C | - | - | 0 mm | 2.68 m/s, ° | - | - |
| 1787399031 | 19.44° C | - | - | 0 mm | 1.79 m/s, ° | - | - |
| 1787398971 | 19.44° C | - | - | 0 mm | 1.34 m/s, ° | - | - |
| 1787398911 | 18.89° C | - | - | 0 mm | 1.34 m/s, ° | - | - |
| 1787398851 | 18.33° C | - | - | 0 mm | 1.34 m/s, ° | - | - |
| 1787398791 | 18.33° C | - | - | 0 mm | 0.89 m/s, ° | - | - |
| 1787398731 | 18.33° C | - | - | 0 mm | 1.34 m/s, ° | - | - |
| 1787398671 | 18.89° C | - | - | 0 mm | 1.79 m/s, ° | - | - |
| 1787398611 | 18.89° C | - | - | 0 mm | 0.45 m/s, ° | - | - |
| 1787398551 | 18.89° C | - | - | 0 mm | 0.89 m/s, ° | - | - |
| 1787398491 | 19.44° C | - | - | 0 mm | 0.89 m/s, ° | - | - |
| 1787398431 | 20° C | - | - | 0 mm | 0.89 m/s, ° | - | - |
| 1787398371 | 20.56° C | - | - | 0 mm | 0.89 m/s, ° | - | - |
| 1787398311 | 20.56° C | - | - | 0 mm | 0.89 m/s, ° | - | - |
| 1787398251 | 20.56° C | - | - | 0 mm | 1.34 m/s, ° | - | - |
| 1787398191 | 20.56° C | - | - | 0 mm | 1.34 m/s, ° | - | - |
| 1787398131 | 20.56° C | - | - | 0 mm | 1.34 m/s, ° | - | - |
| 1787398071 | 20° C | - | - | 0 mm | 1.34 m/s, ° | - | - |
| 1787398011 | 19.44° C | - | - | 0 mm | 0.89 m/s, ° | - | - |
| 1787397951 | 18.89° C | - | - | 0 mm | 0.89 m/s, ° | - | - |
* Rain latest hour (hover to see other rain measurements)
** Current wind speed in m/s (hover to see current wind gust speed)